Probability
0 0 0 0 0 0 0 0 0 0 0 0 0 0 0 0 1 3 5 5 12 31 46 47 49 46 32 23 25 29 27 20 13 7 4 2 0 0 0 0 0 0 0 0 0 0 0 0 0
0 0 0 0 0 0 0 0 0 0 0 0 0 0 0 0 2 5 6 7 15 33 49 55 60 60 50 40 41 46 45 37 28 18 10 5 1 0 0 0 0 0 0 0 0 0 0 0 0
0 0 0 0 0 0 0 0 0 0 0 0 0 0 0 1 3 7 9 11 20 38 54 66 72 73 67 60 57 59 59 53 46 36 24 12 4 0 0 0 0 0 0 0 0 0 0 0 0
0 0 0 0 0 0 0 0 0 0 0 0 0 0 1 2 4 8 12 15 25 40 55 69 78 77 72 66 62 62 62 60 56 47 34 21 10 3 2 1 0 0 0 0 0 0 0 0 0
0 0 0 0 0 0 0 0 0 0 0 0 0 1 3 6 9 11 13 16 27 42 53 65 75 74 68 64 63 64 65 64 60 51 38 25 15 9 5 2 1 0 0 0 0 0 0 0 0
0 0 0 0 0 0 0 0 0 0 0 0 0 2 5 10 15 17 16 18 28 43 54 62 66 64 61 62 63 66 67 67 63 52 37 25 17 11 7 4 2 1 0 0 0 0 0 0 0
0 0 0 0 0 0 0 0 0 0 0 1 1 3 7 13 21 23 21 22 29 41 52 57 54 52 52 54 58 63 66 67 64 52 36 23 14 8 5 5 4 2 1 0 1 1 0 0 0
0 0 0 0 0 0 0 0 0 0 1 2 3 5 10 19 28 31 31 33 36 40 48 52 50 46 42 42 47 54 59 61 58 49 35 20 9 4 2 4 5 4 1 0 1 1 1 0 0
0 0 0 0 0 0 0 0 0 0 1 2 3 6 14 26 35 39 44 49 50 50 51 53 53 48 39 37 40 43 45 45 40 35 27 15 5 1 2 5 7 5 1 1 1 2 1 0 0
0 0 0 0 0 0 0 0 0 0 0 1 3 7 17 28 36 41 47 55 61 61 58 57 56 54 47 44 46 39 33 29 23 20 18 12 7 5 4 8 9 5 2 2 2 2 1 0 0
0 0 0 0 0 0 0 0 0 0 0 0 2 6 15 23 28 33 39 49 60 63 59 56 57 57 55 55 55 46 37 32 25 23 23 20 19 13 8 7 7 4 2 1 2 2 1 1 1
0 0 0 0 0 0 0 0 0 0 0 1 2 4 10 16 18 23 33 46 55 55 52 51 54 58 62 63 62 57 52 46 41 43 41 35 29 22 14 10 7 4 1 1 2 2 2 1 2
0 0 0 0 0 0 0 0 0 0 0 1 2 3 6 10 13 21 34 47 52 49 46 48 54 62 69 72 70 68 66 60 56 56 53 43 34 28 24 19 13 6 3 3 3 3 2 1 1
0 0 0 0 0 0 0 0 0 0 0 1 2 5 8 12 15 23 37 50 56 56 54 54 58 65 73 76 75 73 73 68 62 59 55 45 37 34 32 25 17 9 7 8 7 5 3 1 1
0 0 0 0 0 0 0 0 0 0 1 2 4 9 16 20 24 29 41 54 62 65 64 61 57 59 67 73 72 71 71 68 64 61 56 48 41 42 39 30 21 16 16 18 16 12 8 5 4
0 0 0 0 0 0 0 1 1 1 2 4 7 13 20 26 31 36 43 53 62 67 68 63 54 51 58 66 68 68 68 68 66 63 57 51 49 49 48 40 31 27 29 28 25 20 16 13 10
0 0 0 0 0 0 0 1 2 4 5 7 11 16 21 26 31 37 40 47 56 65 68 64 56 51 56 63 66 67 69 70 66 61 57 55 54 53 51 47 39 36 36 32 28 27 25 19 15
0 0 0 0 0 0 0 1 3 5 7 9 13 17 20 23 29 36 38 41 50 59 63 60 55 54 58 63 65 64 66 67 62 57 56 55 53 52 53 50 44 41 39 35 32 32 29 21 15
0 0 0 0 0 0 0 0 3 6 8 9 12 16 16 19 28 38 41 41 47 55 56 51 50 52 56 59 60 59 59 57 52 49 48 48 47 49 50 49 47 45 43 40 35 32 27 20 16
0 0 0 0 0 0 0 1 3 6 8 9 12 14 14 18 27 38 43 44 48 54 53 49 48 51 53 52 53 53 50 45 40 37 36 36 38 40 40 40 41 41 39 36 31 28 25 21 18
0 0 0 0 0 0 0 1 3 5 5 6 9 13 16 18 23 31 40 44 47 51 52 51 51 52 53 51 50 48 43 37 32 26 23 22 24 25 26 28 30 29 26 24 23 23 23 21 19
0 0 0 0 0 0 0 0 2 3 2 2 6 12 15 16 20 26 33 39 43 46 50 52 53 53 52 52 50 46 39 32 25 18 13 13 14 14 13 15 17 17 15 14 14 15 16 17 17
0 0 0 0 0 0 0 0 1 2 1 1 5 9 11 14 20 26 29 33 38 43 46 50 53 54 52 51 49 46 37 26 18 13 9 9 9 8 6 6 8 9 9 8 8 8 9 11 12
0 0 0 0 0 0 0 0 1 3 2 1 3 6 7 11 19 24 26 28 33 39 42 43 46 48 49 48 45 40 30 19 12 9 8 8 8 7 5 5 6 6 6 6 6 6 6 7 7
0 0 0 0 0 0 0 0 3 6 4 2 2 4 6 9 13 18 20 22 26 32 34 34 35 37 38 38 35 29 22 13 8 7 7 8 8 7 5 4 5 5 5 4 4 3 3 3 2
0 0 0 0 0 0 0 1 5 7 5 3 2 3 4 6 8 11 14 15 18 21 24 24 24 24 23 23 20 17 13 9 6 6 5 5 5 5 3 2 2 2 2 1 1 1 1 1 0
0 0 0 0 0 0 0 1 4 5 4 3 2 2 3 3 5 6 8 9 10 12 14 16 15 14 13 11 10 8 7 5 4 3 3 2 2 1 1 0 0 0 0 0 0 0 0 0 0
0 0 0 0 0 0 0 0 1 2 2 2 1 1 2 3 3 3 3 4 5 6 8 9 9 8 7 6 5 4 3 3 2 1 1 0 0 0 0 0 0 0 0 0 0 0 0 0 0
0 0 0 0 0 0 0 0 0 1 2 2 1 1 1 2 2 1 1 1 2 3 5 6 6 5 5 3 2 1 1 1 1 0 0 0 0 0 0 0 0 0 0 0 0 0 0 0 0
0 0 0 0 0 0 0 0 0 1 2 2 1 0 0 1 1 0 0 0 1 2 3 4 4 4 2 1 0 0 0 0 0 0 0 0 0 0 0 0 0 0 0 0 0 0 0 0 0
Wind_Speed
9 7 7 6 9 10 12 5 3 3 1 1 1 2 4 4 5 5 5 9 12 16 18 18 14 13 14 14 15 16 15 16 16 15 15 14 13 12 12 11 10 10 10 10 10 10 11 11 11
6 6 7 7 10 12 10 5 5 2 2 1 2 3 4 0 3 5 6 10 15 17 18 18 16 14 15 15 16 16 17 17 16 15 15 14 13 12 11 11 10 10 10 10 10 10 10 10 10
6 8 8 8 13 13 7 3 3 0 1 3 3 3 3 1 3 4 7 13 16 17 18 18 17 15 15 16 16 17 17 17 16 15 15 14 13 12 11 11 10 10 10 9 9 9 9 9 9
6 8 7 11 16 14 10 3 2 4 4 4 4 3 2 2 2 5 11 14 17 18 18 19 17 16 15 16 16 17 17 16 16 15 15 13 13 12 11 11 11 10 9 9 9 9 8 8 8
8 8 12 15 17 12 8 8 7 8 6 5 6 5 3 4 4 8 12 15 16 17 17 20 16 16 16 16 16 16 16 15 15 15 14 13 12 11 11 11 11 10 9 9 9 8 7 7 6
7 8 12 15 16 12 10 9 10 11 10 7 7 8 2 6 7 9 13 14 16 17 18 19 18 18 17 16 16 15 15 15 14 14 14 13 12 11 11 10 10 10 9 9 8 8 7 6 5
10 9 14 15 12 11 10 9 11 11 11 8 6 7 3 7 8 9 12 13 15 16 17 18 19 18 17 15 15 14 14 13 13 13 13 13 12 11 11 10 10 9 9 9 8 7 6 5 4
8 8 13 13 12 12 7 8 9 10 9 4 5 7 3 8 10 10 11 12 14 15 16 17 17 17 17 16 16 15 14 13 13 14 14 13 12 11 10 11 9 9 8 8 7 7 6 5 4
7 10 11 10 9 8 5 8 8 6 9 8 8 7 2 10 13 12 12 13 14 15 15 16 17 16 16 16 15 15 14 13 13 13 13 13 12 12 11 10 10 9 8 8 7 6 6 5 6
8 11 10 5 6 8 6 8 8 8 12 11 10 7 4 11 14 15 15 17 17 17 17 16 16 16 16 13 13 11 12 12 12 12 13 11 8 7 7 13 9 8 8 8 7 6 8 9 8
8 9 5 5 7 9 10 9 9 11 13 11 10 7 8 12 14 15 15 16 16 17 16 16 15 15 14 11 11 8 8 9 11 12 12 8 7 7 6 7 9 9 10 9 9 9 8 7 4
7 7 7 7 6 9 10 10 10 12 13 10 9 8 9 12 14 15 15 15 15 16 17 17 16 14 14 12 10 9 8 8 9 10 11 9 6 6 6 5 6 7 6 5 5 5 5 4 4
10 7 7 9 10 10 11 12 12 12 10 11 10 10 11 12 13 13 12 13 14 16 17 17 16 15 12 10 9 10 9 9 8 8 10 9 7 7 6 5 4 5 4 5 5 4 3 4 5
4 7 9 10 10 9 11 12 12 11 9 10 10 10 10 10 11 12 12 13 14 15 16 15 15 15 13 11 10 9 8 7 8 8 10 10 7 6 6 6 5 4 4 3 3 3 4 4 2
6 10 11 9 8 7 9 13 12 8 8 9 8 7 6 6 7 9 10 11 13 14 14 14 15 14 14 13 12 9 8 8 8 7 9 9 9 7 6 6 5 5 4 4 4 4 3 3 3
9 10 8 3 4 4 10 11 2 2 6 7 6 5 4 4 5 5 6 7 9 11 12 13 12 13 13 11 10 7 7 7 6 5 6 8 8 7 6 5 5 4 4 3 3 3 3 2 2
7 6 5 2 3 4 9 8 2 2 4 5 4 4 4 3 3 3 4 5 7 8 10 12 12 12 12 10 8 7 5 5 4 4 4 5 6 6 6 4 3 4 3 3 3 3 2 2 1
3 6 6 6 2 6 9 8 5 4 4 4 3 2 2 2 1 1 1 4 5 6 7 8 9 9 9 7 6 5 4 4 3 3 3 4 4 5 4 3 4 3 3 3 2 2 2 1 1
7 9 9 7 4 7 9 8 5 4 4 4 3 2 1 1 1 1 1 1 4 5 6 7 9 9 7 6 6 6 5 4 3 3 3 3 2 3 3 2 2 2 2 2 3 3 3 2 2
9 10 10 6 2 7 8 7 4 2 2 2 2 2 1 1 2 3 2 1 2 4 5 6 7 9 9 7 6 5 5 4 3 3 4 3 3 3 3 3 2 2 2 3 3 3 2 2 1
9 10 9 9 6 8 9 10 8 5 3 2 1 1 2 2 3 3 3 2 2 2 3 4 5 7 9 8 6 6 5 4 3 4 4 5 5 5 4 5 4 3 2 3 2 2 3 3 1
10 7 9 9 10 8 8 9 7 7 6 4 2 2 3 4 5 5 4 4 4 2 1 3 4 5 6 8 8 9 7 6 5 5 6 7 7 7 6 6 6 5 4 4 3 2 0 2 2
11 9 10 11 12 12 11 11 6 8 7 5 4 4 5 6 6 6 6 5 5 4 3 4 4 5 6 7 10 9 8 7 7 8 10 8 8 8 8 7 7 6 6 6 5 5 4 2 2
10 10 11 11 12 14 11 10 7 5 5 6 6 6 6 6 7 7 7 7 6 6 5 5 5 6 6 7 8 10 11 11 11 10 9 8 6 7 9 8 8 7 7 7 7 7 8 7 7
9 10 9 10 10 9 5 8 1 4 3 5 7 7 7 7 7 7 8 8 7 7 7 6 7 7 7 7 8 9 12 12 12 10 9 8 7 7 8 7 8 8 8 8 8 9 9 9 9
9 11 11 10 8 4 5 5 4 6 6 7 8 8 8 7 8 9 9 9 8 8 8 7 8 9 9 10 10 10 10 9 9 10 9 9 7 8 9 9 9 10 9 9 9 8 9 9 9
8 10 9 11 12 10 4 3 5 6 7 7 8 8 8 8 8 9 9 9 9 9 9 8 9 10 11 12 12 12 12 12 13 12 11 10 9 9 10 10 11 10 10 10 9 8 9 8 8
10 8 6 9 9 10 6 6 4 10 9 8 8 8 8 8 8 9 9 9 9 9 9 10 11 12 12 12 12 12 13 13 13 13 13 12 11 9 10 11 11 10 10 9 8 9 9 9 9
6 8 9 9 9 9 7 0 4 5 9 9 9 8 9 9 9 9 9 9 9 10 10 11 12 13 14 14 14 14 14 13 13 13 12 11 10 10 11 10 10 10 10 9 9 10 10 10 9
7 8 9 9 9 9 8 2 6 5 9 11 11 9 9 10 9 9 9 9 10 11 11 11 12 13 13 13 14 14 14 14 13 13 12 11 11 10 10 10 10 9 9 9 9 9 9 9 9
Wind_Direction
243 224 223 236 242 238 248 228 243 225 184 42 313 301 310 334 339 46 89 149 155 152 146 149 144 142 142 144 145 144 143 143 143 144 144 143 144 143 141 138 135 131 126 123 120 120 120 121 123
248 207 224 236 249 242 232 225 230 267 17 299 208 241 259 285 60 94 128 146 156 153 152 156 144 145 144 145 144 144 145 145 144 145 145 145 146 145 143 140 138 133 129 127 125 124 124 126 129
219 223 241 237 239 250 250 188 239 282 196 226 218 243 277 68 118 129 137 152 157 154 156 147 150 148 146 147 147 146 147 147 147 147 147 147 147 146 144 143 140 136 133 131 129 127 125 127 129
205 211 231 244 241 242 263 250 255 253 218 224 244 225 176 87 124 136 146 159 160 157 155 149 156 152 150 150 151 150 149 150 150 150 149 149 149 148 146 145 142 140 138 136 133 130 128 129 131
229 232 229 237 245 246 245 260 262 260 244 232 244 253 183 134 139 142 155 163 162 158 155 152 157 154 154 154 154 153 152 152 152 152 151 151 150 150 149 148 146 144 141 138 135 133 131 132 134
215 228 236 239 242 239 240 247 250 255 252 235 239 249 190 131 152 155 157 164 163 158 155 150 158 159 159 159 158 156 155 155 154 153 153 152 152 151 151 149 149 148 145 143 141 139 138 137 137
236 232 247 253 257 247 243 248 248 252 248 239 237 247 170 150 150 155 158 164 161 161 156 156 163 164 164 162 160 158 156 157 155 154 155 155 155 156 155 152 151 150 148 148 148 149 149 148 148
255 249 247 249 255 257 245 245 248 257 258 261 243 245 200 150 152 155 159 162 164 164 161 161 166 166 169 169 166 163 160 160 159 158 159 158 158 161 161 163 152 154 155 157 158 161 163 162 164
238 244 247 247 255 262 247 248 241 256 257 241 236 260 15 141 157 161 162 165 168 169 166 167 168 169 173 171 165 170 167 164 165 166 164 171 177 170 174 161 149 162 163 165 166 171 174 184 184
225 242 254 289 280 279 265 255 260 251 241 232 230 228 180 166 174 176 176 175 173 174 174 172 173 170 175 168 165 177 179 172 188 175 174 190 178 178 173 131 159 169 171 174 176 182 194 220 202
229 256 283 264 263 275 273 264 256 253 249 242 243 235 202 192 194 193 188 184 180 176 177 175 176 175 175 170 169 179 185 176 194 182 182 188 175 178 177 164 170 180 186 192 173 197 213 216 224
240 252 264 269 271 262 267 269 260 249 259 271 274 262 226 212 208 202 197 189 181 177 183 178 177 177 181 177 176 180 188 182 191 179 190 183 188 189 184 191 183 184 192 194 200 211 204 226 227
238 250 256 261 260 262 266 260 263 264 265 271 271 257 235 223 215 207 201 190 183 182 185 181 182 178 182 183 187 186 192 186 190 183 192 194 190 194 184 191 194 206 188 186 212 216 198 222 224
261 269 265 263 262 252 253 255 249 256 271 268 258 249 237 226 220 205 197 192 188 186 185 181 184 180 186 188 192 191 194 191 193 190 190 199 202 191 191 191 192 207 206 212 211 209 210 224 234
264 264 256 244 249 247 253 249 241 263 272 261 247 237 233 230 218 211 199 196 189 185 184 183 184 185 189 193 195 194 198 196 200 191 191 199 206 191 196 200 196 204 206 202 212 211 216 212 207
238 246 251 195 239 231 246 254 214 268 263 255 247 232 217 219 215 204 200 198 188 184 182 184 185 188 191 197 196 197 202 195 199 194 195 203 209 200 204 207 203 200 207 206 205 215 208 212 216
217 258 285 262 211 240 244 266 265 299 266 255 243 227 209 199 208 195 197 187 186 186 187 184 188 189 191 193 191 194 196 196 191 186 196 204 209 208 213 214 203 201 201 205 219 196 207 196 200
313 297 285 284 245 251 254 262 265 263 265 258 254 238 212 208 191 170 191 182 175 178 183 187 187 188 191 188 187 180 177 177 172 174 176 184 198 202 206 208 200 202 196 195 199 179 171 183 179
295 290 286 286 277 263 262 260 254 250 255 253 254 250 220 218 76 69 103 177 162 161 171 183 183 177 177 182 188 180 177 166 155 149 141 153 172 175 178 193 171 189 181 176 178 178 168 177 176
270 273 276 275 254 268 268 258 239 233 249 290 298 285 281 307 30 31 42 90 152 158 172 176 180 171 176 180 182 177 159 146 135 118 97 91 114 128 147 148 140 131 137 137 155 185 192 177 220
265 274 291 296 288 247 250 240 207 182 179 146 80 19 22 21 31 36 41 51 91 123 154 162 166 171 176 169 153 142 131 130 133 110 87 70 77 84 97 104 102 100 125 125 131 178 193 179 156
275 279 286 279 269 261 243 263 203 186 186 165 129 88 67 52 49 47 48 48 50 56 98 132 139 156 163 157 155 151 154 153 139 118 100 84 75 76 80 88 95 97 91 96 98 81 126 179 167
286 299 282 272 267 269 247 258 233 190 202 166 128 99 77 63 56 53 50 50 51 54 65 87 107 130 148 157 155 152 149 135 123 115 104 90 78 74 76 78 81 84 82 81 79 79 70 76 88
278 273 261 253 253 255 250 251 245 198 203 158 131 104 84 73 66 59 58 58 54 53 61 75 90 101 121 137 144 145 139 131 122 111 106 96 87 79 76 79 81 81 81 80 79 81 79 72 68
245 258 257 245 238 252 236 246 252 80 101 145 132 109 87 71 64 58 54 54 53 52 57 70 85 91 94 109 117 122 125 123 116 112 106 103 95 87 80 83 84 83 82 82 82 80 78 77 76
254 260 269 282 283 279 214 242 91 91 94 109 116 114 99 82 69 59 52 51 52 54 59 71 83 87 89 90 91 97 106 104 101 100 99 92 88 89 90 86 84 84 84 85 83 82 81 78 77
261 250 275 282 277 275 241 155 128 130 131 131 124 114 97 85 75 66 56 53 53 55 57 71 85 87 87 88 90 90 91 93 96 95 92 90 90 92 91 89 87 85 84 83 84 83 83 82 80
267 287 262 255 268 268 248 227 192 172 171 157 142 124 109 97 83 72 62 59 59 61 65 71 80 85 86 86 86 89 89 92 93 91 90 90 89 90 91 89 89 89 89 90 91 89 84 82 75
232 235 254 266 274 284 282 63 36 162 164 152 135 124 115 101 86 78 71 66 68 69 72 77 80 83 84 84 87 88 87 88 90 91 91 91 90 90 90 91 90 89 87 84 84 86 86 83 80
272 268 262 264 266 266 282 49 50 98 127 129 123 114 107 100 92 84 80 76 73 72 74 78 82 85 87 89 89 89 89 90 90 90 90 90 89 88 89 89 89 90 88 87 88 88 86 84 80